SB KEPS @ AMSAT $ORB13187.O Orbital Elements 13187.OSCAR
HR AMSAT ORBITAL ELEMENTS FOR OSCAR SATELLITES FROM WA5QGD FORT WORTH,TX July 6, 2013 BID: ORB13187.O TO ALL RADIO AMATEURS BT
Satellite: AO-07 Catalog number: 07530 Epoch time: 13186.86230321 Element set: 721 Inclination: 101.4317 deg RA of node: 175.6910 deg Eccentricity: 0.0011412 Arg of perigee: 250.9671 deg Mean anomaly: 168.7003 deg Mean motion: 12.53597092 rev/day Decay rate: -4.8e-07 rev/day^2 Epoch rev: 76812 Checksum: 277
Satellite: FO-29 Catalog number: 24278 Epoch time: 13187.21247219 Element set: 147 Inclination: 098.5541 deg RA of node: 243.2329 deg Eccentricity: 0.0351592 Arg of perigee: 114.8551 deg Mean anomaly: 281.6596 deg Mean motion: 13.53003291 rev/day Decay rate: -2.5e-07 rev/day^2 Epoch rev: 83388 Checksum: 314
Satellite: SO-33 Catalog number: 25509 Epoch time: 13186.78082280 Element set: 532 Inclination: 031.4334 deg RA of node: 322.3460 deg Eccentricity: 0.0351185 Arg of perigee: 320.6843 deg Mean anomaly: 187.1280 deg Mean motion: 14.29093224 rev/day Decay rate: 2.63e-06 rev/day^2 Epoch rev: 76755 Checksum: 292
Satellite: RS-22 Catalog number: 27939 Epoch time: 13187.65462661 Element set: 560 Inclination: 097.7997 deg RA of node: 014.4870 deg Eccentricity: 0.0014299 Arg of perigee: 121.9094 deg Mean anomaly: 238.3505 deg Mean motion: 14.64497365 rev/day Decay rate: 4.64e-06 rev/day^2 Epoch rev: 52214 Checksum: 337
Satellite: VO-52 Catalog number: 28650 Epoch time: 13186.68006788 Element set: 465 Inclination: 097.5675 deg RA of node: 204.3342 deg Eccentricity: 0.0025296 Arg of perigee: 216.3428 deg Mean anomaly: 281.5662 deg Mean motion: 14.83958421 rev/day Decay rate: 6.48e-06 rev/day^2 Epoch rev: 44182 Checksum: 334
Satellite: HO-68 Catalog number: 36122 Epoch time: 13187.65969088 Element set: 698 Inclination: 100.3045 deg RA of node: 244.2194 deg Eccentricity: 0.0007304 Arg of perigee: 312.1203 deg Mean anomaly: 047.9309 deg Mean motion: 13.16305339 rev/day Decay rate: -4.4e-07 rev/day^2 Epoch rev: 17097 Checksum: 297
/EX SB KEPS @ AMSAT $ORB13187.D Orbital Elements 13187.MICROS
HR AMSAT ORBITAL ELEMENTS FOR THE MICROSATS FROM WA5QGD FORT WORTH,TX July 6, 2013 BID: ORB13187.D TO ALL RADIO AMATEURS BT
Satellite: UO-11 Catalog number: 14781 Epoch time: 13187.76952186 Element set: 223 Inclination: 097.9014 deg RA of node: 248.8013 deg Eccentricity: 0.0008334 Arg of perigee: 216.1383 deg Mean anomaly: 143.9267 deg Mean motion: 14.80936120 rev/day Decay rate: 3.30e-06 rev/day^2 Epoch rev: 57683 Checksum: 303
Satellite: AO-16 Catalog number: 20439 Epoch time: 13187.44706708 Element set: 786 Inclination: 098.4714 deg RA of node: 127.0276 deg Eccentricity: 0.0012191 Arg of perigee: 102.0115 deg Mean anomaly: 019.1141 deg Mean motion: 14.32185692 rev/day Decay rate: 4.8e-07 rev/day^2 Epoch rev: 22499 Checksum: 291
Satellite: LO-19 Catalog number: 20442 Epoch time: 13186.83509883 Element set: 720 Inclination: 098.4406 deg RA of node: 128.1558 deg Eccentricity: 0.0013132 Arg of perigee: 094.8360 deg Mean anomaly: 289.0931 deg Mean motion: 14.32396288 rev/day Decay rate: 5.7e-07 rev/day^2 Epoch rev: 22510 Checksum: 306
Satellite: AO-27 Catalog number: 22825 Epoch time: 13186.88770929 Element set: 423 Inclination: 098.6187 deg RA of node: 130.7152 deg Eccentricity: 0.0007655 Arg of perigee: 227.2313 deg Mean anomaly: 169.4741 deg Mean motion: 14.29573353 rev/day Decay rate: 3.7e-07 rev/day^2 Epoch rev: 3130 Checksum: 309
Satellite: IO-26 Catalog number: 22826 Epoch time: 13186.81309027 Element set: 179 Inclination: 098.6131 deg RA of node: 130.9244 deg Eccentricity: 0.0008304 Arg of perigee: 220.7016 deg Mean anomaly: 172.8210 deg Mean motion: 14.29858576 rev/day Decay rate: 4.6e-07 rev/day^2 Epoch rev: 3142 Checksum: 285
Satellite: GO-32 Catalog number: 25397 Epoch time: 13186.81902259 Element set: 106 Inclination: 098.4160 deg RA of node: 153.7673 deg Eccentricity: 0.0000787 Arg of perigee: 174.0231 deg Mean anomaly: 248.3556 deg Mean motion: 14.23347824 rev/day Decay rate: 1.9e-07 rev/day^2 Epoch rev: 77859 Checksum: 321
Satellite: NO-44 Catalog number: 26931 Epoch time: 13187.49926787 Element set: 365 Inclination: 067.0501 deg RA of node: 209.7252 deg Eccentricity: 0.0007943 Arg of perigee: 277.8808 deg Mean anomaly: 225.8892 deg Mean motion: 14.29938031 rev/day Decay rate: -4.8e-07 rev/day^2 Epoch rev: 61418 Checksum: 344
Satellite: SO-50 Catalog number: 27607 Epoch time: 13187.48118543 Element set: 106 Inclination: 064.5554 deg RA of node: 205.3991 deg Eccentricity: 0.0042715 Arg of perigee: 157.8982 deg Mean anomaly: 345.1264 deg Mean motion: 14.72985411 rev/day Decay rate: 1.28e-06 rev/day^2 Epoch rev: 56655 Checksum: 320
Satellite: CO-55 Catalog number: 27844 Epoch time: 13187.06432624 Element set: 686 Inclination: 098.7005 deg RA of node: 195.8621 deg Eccentricity: 0.0009771 Arg of perigee: 187.4120 deg Mean anomaly: 205.5670 deg Mean motion: 14.21236681 rev/day Decay rate: 1.24e-06 rev/day^2 Epoch rev: 51941 Checksum: 306
Satellite: CO-57 Catalog number: 27848 Epoch time: 13187.00201047 Element set: 632 Inclination: 098.7093 deg RA of node: 195.3228 deg Eccentricity: 0.0009615 Arg of perigee: 193.4424 deg Mean anomaly: 220.0930 deg Mean motion: 14.20960462 rev/day Decay rate: 1.07e-06 rev/day^2 Epoch rev: 51933 Checksum: 289
Satellite: AO-51 Catalog number: 28375 Epoch time: 13186.99675381 Element set: 597 Inclination: 098.2025 deg RA of node: 141.7021 deg Eccentricity: 0.0082379 Arg of perigee: 319.8085 deg Mean anomaly: 103.3294 deg Mean motion: 14.41135402 rev/day Decay rate: 8.2e-07 rev/day^2 Epoch rev: 47404 Checksum: 311
Satellite: CP3 Catalog number: 31129 Epoch time: 13186.84165141 Element set: 495 Inclination: 097.8983 deg RA of node: 178.4259 deg Eccentricity: 0.0100015 Arg of perigee: 010.3182 deg Mean anomaly: 054.6105 deg Mean motion: 14.53710614 rev/day Decay rate: 5.15e-06 rev/day^2 Epoch rev: 32970 Checksum: 282
Satellite: CO-65 Catalog number: 32785 Epoch time: 13187.12082284 Element set: 675 Inclination: 097.7500 deg RA of node: 244.1156 deg Eccentricity: 0.0013225 Arg of perigee: 240.8462 deg Mean anomaly: 179.1640 deg Mean motion: 14.83952177 rev/day Decay rate: 6.78e-06 rev/day^2 Epoch rev: 28068 Checksum: 321
Satellite: PRISM Catalog number: 33493 Epoch time: 13187.87571457 Element set: 959 Inclination: 098.2183 deg RA of node: 345.4564 deg Eccentricity: 0.0019339 Arg of perigee: 126.6776 deg Mean anomaly: 233.6212 deg Mean motion: 14.86129973 rev/day Decay rate: 2.013e-05 rev/day^2 Epoch rev: 24084 Checksum: 332
Satellite: SOHLA-1 Catalog number: 33496 Epoch time: 13186.85642638 Element set: 87 Inclination: 098.1375 deg RA of node: 302.8273 deg Eccentricity: 0.0005377 Arg of perigee: 256.3402 deg Mean anomaly: 216.6530 deg Mean motion: 14.70316580 rev/day Decay rate: 1.95e-06 rev/day^2 Epoch rev: 23861 Checksum: 307
Satellite: SO-67 Catalog number: 35870 Epoch time: 13187.89725815 Element set: 211 Inclination: 097.1906 deg RA of node: 215.9423 deg Eccentricity: 0.0000448 Arg of perigee: 151.2200 deg Mean anomaly: 331.4393 deg Mean motion: 15.27357088 rev/day Decay rate: 3.479e-05 rev/day^2 Epoch rev: 21126 Checksum: 306
Satellite: TISAT-1 Catalog number: 36799 Epoch time: 13187.67982481 Element set: 230 Inclination: 098.0336 deg RA of node: 272.4866 deg Eccentricity: 0.0014644 Arg of perigee: 011.6841 deg Mean anomaly: 348.4712 deg Mean motion: 14.83418713 rev/day Decay rate: 1.294e-05 rev/day^2 Epoch rev: 16146 Checksum: 321
Satellite: STUDSAT Catalog number: 36801 Epoch time: 13187.48091991 Element set: 650 Inclination: 098.0465 deg RA of node: 275.6068 deg Eccentricity: 0.0010547 Arg of perigee: 352.6985 deg Mean anomaly: 100.3175 deg Mean motion: 14.88667448 rev/day Decay rate: 3.251e-05 rev/day^2 Epoch rev: 16160 Checksum: 317
Satellite: ALMASAT-1 Catalog number: 38078 Epoch time: 13187.63563846 Element set: 411 Inclination: 069.4712 deg RA of node: 155.8491 deg Eccentricity: 0.0690009 Arg of perigee: 122.2807 deg Mean anomaly: 244.7109 deg Mean motion: 14.25766605 rev/day Decay rate: 1.4892e-04 rev/day^2 Epoch rev: 7201 Checksum: 313
Satellite: XATCOBEO Catalog number: 38082 Epoch time: 13187.97506641 Element set: 297 Inclination: 069.4713 deg RA of node: 128.0094 deg Eccentricity: 0.0562324 Arg of perigee: 106.9913 deg Mean anomaly: 011.5832 deg Mean motion: 14.58292348 rev/day Decay rate: 6.7501e-04 rev/day^2 Epoch rev: 7280 Checksum: 311
Satellite: SOMP Catalog number: 39135 Epoch time: 13187.80956934 Element set: 162 Inclination: 064.8766 deg RA of node: 146.9568 deg Eccentricity: 0.0011032 Arg of perigee: 205.8295 deg Mean anomaly: 154.2297 deg Mean motion: 15.00396705 rev/day Decay rate: 2.483e-05 rev/day^2 Epoch rev: 1177 Checksum: 315
Satellite: CUBEBUG-1 Catalog number: 39153 Epoch time: 13187.85687809 Element set: 193 Inclination: 098.0727 deg RA of node: 263.6053 deg Eccentricity: 0.0018944 Arg of perigee: 025.3084 deg Mean anomaly: 334.9038 deg Mean motion: 14.76484363 rev/day Decay rate: 7.97e-06 rev/day^2 Epoch rev: 1058 Checksum: 335
Satellite: ESTCUBE-1 Catalog number: 39161 Epoch time: 13187.78116466 Element set: 161 Inclination: 098.1265 deg RA of node: 265.9351 deg Eccentricity: 0.0011072 Arg of perigee: 054.2336 deg Mean anomaly: 305.9886 deg Mean motion: 14.69003562 rev/day Decay rate: 5.82e-06 rev/day^2 Epoch rev: 887 Checksum: 307
/EX SB KEPS @ AMSAT $ORB13187.W Orbital Elements 13187.WEATHER
HR AMSAT ORBITAL ELEMENTS FOR WEATHER SATELLITES FROM WA5QGD FORT WORTH,TX July 6, 2013 BID: ORB13187.W TO ALL RADIO AMATEURS BT
Satellite: NOAA-10 Catalog number: 16969 Epoch time: 13187.17758943 Element set: 415 Inclination: 098.5444 deg RA of node: 214.6025 deg Eccentricity: 0.0012479 Arg of perigee: 184.5251 deg Mean anomaly: 217.6531 deg Mean motion: 14.27649469 rev/day Decay rate: 3.1e-07 rev/day^2 Epoch rev: 39465 Checksum: 328
